Hourly Weather Roundup
Issued by NWS Central Illinois

Home | Current Version | Previous Version | Text Only | Print | Product List | Glossary On
Versions: 1 2 3 4 5 6 7 8 9 10 11 12 13 14 15 16 17 18 19 20 21 22 23 24 25 26 27 28 29 30 31 32 33 34 35 36 37 38 39 40 41 42 43 44 45 46 47 48 49 50
000
NZUS43 KILX 031910
HWRILX

AREA WEATHER ROUNDUP
NATIONAL WEATHER SERVICE, LINCOLN IL
100 PM CST SAT DEC 03 2016


CITY           SKY/WX    TMP DP  RH WIND       PRES   REMARKS
BLOOMINGTON    CLOUDY    35  27  72 N3        30.35F
CHAMPAIGN      CLOUDY    37  28  70 W5        30.37S WCI  33
DANVILLE       CLOUDY    35  27  73 NW3       30.33F
DECATUR        CLOUDY    39  30  70 CALM      30.36F
EFFINGHAM      CLOUDY    42  33  70 CALM      30.36F
FLORA          CLOUDY    44  33  65 S3        30.35F
GALESBURG      CLOUDY    36  27  70 CALM      30.35S
JACKSONVILLE   PTSUNNY   40  32  73 E6        30.34F
LACON          CLOUDY    34  26  71 W5        30.36F WCI  30
LAWRENCEVILLE  MOSUNNY   44  30  57 CALM      30.35
LITCHFIELD     CLOUDY    40  33  75 CALM      30.34F
$$


CITY           SKY/WX    TMP DP  RH WIND       PRES   REMARKS
LINCOLN        CLOUDY    39  30  72 NE5       30.36F
MACOMB         CLOUDY    38  30  71 NE3       30.36F
MATTOON        CLOUDY    40  28  62 CALM      30.35F
MT CARMEL AP   MOSUNNY   43  31  63 NE3       30.35F
OLNEY-NOBLE AP CLOUDY    43  34  70 CALM      30.35F
PARIS          CLOUDY    37  30  74 NW3       30.37F
PEORIA         CLOUDY    37  27  67 CALM      30.36F
PONTIAC        CLOUDY    34  29  82 W8        30.38S WCI  27
RANTOUL        CLOUDY    37  30  75 NW8       30.36F WCI  31
SPRINGFIELD    CLOUDY    41  30  65 CALM      30.36F
TAYLORVILLE    CLOUDY    40  31  71 CALM      30.35F
$$

...REGIONAL REPORTS...


CITY           SKY/WX    TMP DP  RH WIND       PRES   REMARKS
CHICAGO O`HARE CLOUDY    33  23  66 W8        30.34R WCI  26
KANKAKEE       CLOUDY    34  26  72 W6        30.37S WCI  29
MOLINE         CLOUDY    39  25  57 SW6       30.33F WCI  35
MOUNT STERLING MOSUNNY   40  32  73 E7        30.32F
MOUNT VERNON   NOT AVBL
PITTSFIELD     CLOUDY    42  34  73 E3        30.33F
QUINCY         MOSUNNY   42  32  67 SE7       30.31F
ROCKFORD       CLOUDY    35  24  64 W5        30.35F WCI  31
$$


CITY           SKY/WX    TMP DP  RH WIND       PRES   REMARKS
BURLINGTON     CLOUDY    38  29  70 SE6       30.32F WCI  33
CEDAR RAPIDS   CLOUDY    38  30  73 SW8       30.29F WCI  32
DES MOINES     CLOUDY    41  30  65 S9        30.28F
KIRKSVILLE     SUNNY     43  34  70 SE10      30.29F
OTTUMWA        CLOUDY    40  29  64 S6        30.29F
ST LOUIS       NOT AVBL
$$


CITY           SKY/WX    TMP DP  RH WIND       PRES   REMARKS
TERRE HAUTE    CLOUDY    40  27  59 CALM      30.36F
EVANSVILLE     CLOUDY    46  29  51 N5        30.34F
INDIANAPOLIS   CLOUDY    39  28  64 W8        30.34S WCI  33
LAFAYETTE      CLOUDY    35  27  72 W8        30.35F WCI  29
MADISON        FLURRIES  32  21  64 CALM      30.31R
MILWAUKEE      CLOUDY    34  22  61 SW9       30.32S WCI  27
$$






USA.gov is the U.S. government's official web portal to all federal, state and local government web resources and services.